N4ABQ Weather Reports


time (UTC)temp
C
wind
direction
speed
KPH
gust
KPH
rain 1hr
cm
rain 24hr
cm
rain mn
cm
humidity
%
barometer
mb
20260507062508 23 183 3.2 8.0 0.00 0.00 0.00 78 1012.4
20260507062008 23 172 3.2 8.0 0.00 0.00 0.00 78 1012.6
20260507061508 23 167 1.6 4.8 0.00 0.00 0.00 78 1012.8
20260507061008 23 180 1.6 4.8 0.00 0.00 0.00 78 1012.8
20260507060508 24 181 0.0 0.0 0.00 0.00 0.00 78 1012.9
20260507060008 24 190 1.6 8.0 0.00 0.00 0.00 77 1013.0
20260507055508 24 169 0.0 9.7 0.00 0.00 0.00 77 1012.9
20260507055008 24 168 3.2 8.0 0.00 0.00 0.00 77 1012.8
20260507054507 24 163 0.0 4.8 0.00 0.00 0.00 77 1012.9
20260507054007 24 178 0.0 4.8 0.00 0.00 0.00 76 1013.1
20260507053508 24 172 1.6 4.8 0.00 0.00 0.00 76 1013.2
20260507053008 24 165 0.0 3.2 0.00 0.00 0.00 76 1013.2
20260507052508 24 171 0.0 0.0 0.00 0.00 0.00 76 1013.2
20260507052008 24 168 0.0 0.0 0.00 0.00 0.00 76 1013.2
20260507051508 24 178 0.0 0.0 0.00 0.00 0.00 75 1013.2
20260507051007 24 169 0.0 9.7 0.00 0.00 0.00 75 1013.2
20260507050008 24 178 0.0 9.7 0.00 0.00 0.00 75 1013.2
20260507045508 25 176 3.2 11.3 0.00 0.00 0.00 75 1013.2
20260507045007 25 184 1.6 4.8 0.00 0.00 0.00 74 1013.2
20260507044507 25 187 3.2 9.7 0.00 0.00 0.00 74 1013.0
20260507043508 25 169 8.0 14.5 0.00 0.00 0.00 74 1013.1
20260507043008 25 162 1.6 11.3 0.00 0.00 0.00 74 1013.2
20260507042508 25 170 4.8 11.3 0.00 0.00 0.00 74 1013.3
20260507042007 25 166 1.6 8.0 0.00 0.00 0.00 74 1013.4
20260507041507 25 153 0.0 0.0 0.00 0.00 0.00 73 1013.4
20260507041008 25 177 0.0 0.0 0.00 0.00 0.00 73 1013.4
20260507040508 25 169 0.0 0.0 0.00 0.00 0.00 73 1013.5
20260507040008 25 155 0.0 0.0 0.00 0.00 0.00 73 1013.6
20260507035508 25 156 0.0 0.0 0.00 0.00 0.00 73 1013.6
20260507035008 25 179 0.0 0.0 0.00 0.00 0.00 73 1013.6
20260507034507 25 163 0.0 0.0 0.00 0.00 0.00 73 1013.6
20260507034007 25 163 0.0 0.0 0.00 0.00 0.00 73 1013.6
20260507033508 25 175 0.0 0.0 0.00 0.00 0.00 73 1013.5
20260507033008 25 165 0.0 0.0 0.00 0.00 0.00 73 1013.4
20260507032508 25 169 0.0 0.0 0.00 0.00 0.00 73 1013.5
20260507032007 25 153 0.0 0.0 0.00 0.00 0.00 73 1013.6
20260507031507 25 158 0.0 0.0 0.00 0.00 0.00 73 1013.7
20260507031008 25 164 0.0 0.0 0.00 0.00 0.00 73 1013.6
20260507030507 25 167 0.0 0.0 0.00 0.00 0.00 73 1013.6
20260507030009 25 161 3.2 12.9 0.00 0.00 0.00 73 1013.6
20260507025508 25 167 1.6 9.7 0.00 0.00 0.00 73 1013.6
20260507024008 25 176 0.0 11.3 0.00 0.00 0.00 73 1013.6
20260507023508 25 165 4.8 14.5 0.00 0.00 0.00 73 1013.6
20260507023008 25 156 0.0 1.6 0.00 0.00 0.00 73 1013.6
20260507022507 25 152 0.0 0.0 0.00 0.00 0.00 73 1013.4
20260507022007 25 164 0.0 9.7 0.00 0.00 0.00 73 1013.4
20260507021008 25 164 8.0 11.3 0.00 0.00 0.00 73 1013.4
20260507020508 25 164 8.0 14.5 0.00 0.00 0.00 73 1013.4
20260507020007 25 174 4.8 12.9 0.00 0.00 0.00 73 1013.4
20260507015008 26 165 4.8 9.7 0.00 0.00 0.00 72 1013.4
20260507014508 26 159 4.8 9.7 0.00 0.00 0.00 72 1013.5
20260507014008 26 134 1.6 9.7 0.00 0.00 0.00 71 1013.5
20260507013508 26 159 8.0 12.9 0.00 0.00 0.00 71 1013.5
20260507013007 26 174 4.8 11.3 0.00 0.00 0.00 71 1013.4
20260507012508 26 175 1.6 12.9 0.00 0.00 0.00 71 1013.2
20260507011508 26 175 4.8 14.5 0.00 0.00 0.00 71 1013.3
20260507010008 26 175 8.0 19.3 0.00 0.00 0.00 71 1013.2
20260507005508 26 181 8.0 14.5 0.00 0.00 0.00 70 1013.2
20260507005007 26 171 8.0 20.9 0.00 0.00 0.00 70 1013.1
20260507004508 26 165 3.2 16.1 0.00 0.00 0.00 71 1013.0
20260507004008 26 157 0.0 0.0 0.00 0.00 0.00 71 1013.0
20260507003507 26 167 0.0 0.0 0.00 0.00 0.00 71 1012.9
20260507003008 26 166 3.2 9.7 0.00 0.00 0.00 71 1012.8
20260507002508 26 157 0.0 16.1 0.00 0.00 0.00 71 1012.7
20260507002008 26 154 3.2 12.9 0.00 0.00 0.00 71 1012.7
20260507001008 27 161 6.4 14.5 0.00 0.00 0.00 71 1012.5
20260507000508 27 172 8.0 19.3 0.00 0.00 0.00 71 1012.3
20260507000007 27 127 0.0 14.5 0.00 0.00 0.00 71 1012.2
20260506235008 27 150 8.0 19.3 0.00 0.00 0.00 70 1012.5
20260506234008 27 180 3.2 14.5 0.00 0.00 0.00 71 1012.3
20260506233508 27 163 6.4 16.1 0.00 0.00 0.00 71 1012.4
20260506233007 27 163 0.0 19.3 0.00 0.00 0.00 71 1012.2
20260506232508 27 157 8.0 22.5 0.00 0.00 0.00 70 1012.2
20260506232007 27 140 9.7 25.7 0.00 0.00 0.00 70 1012.2
20260506231508 28 148 6.4 24.1 0.00 0.00 0.00 71 1012.1
20260506231007 28 135 9.7 25.7 0.00 0.00 0.00 70 1012.1
20260506230507 28 155 11.3 32.2 0.00 0.00 0.00 71 1012.2
20260506230008 28 163 9.7 22.5 0.00 0.00 0.00 71 1012.2
20260506225507 28 154 6.4 29.0 0.00 0.00 0.00 70 1012.2
20260506225008 28 157 9.7 27.4 0.00 0.00 0.00 69 1012.2
20260506224008 28 165 9.7 22.5 0.00 0.00 0.00 69 1012.2
20260506223007 29 144 14.5 25.7 0.00 0.00 0.00 68 1012.3
20260506222508 29 149 9.7 20.9 0.00 0.00 0.00 68 1012.3
20260506222008 29 147 12.9 27.4 0.00 0.00 0.00 67 1012.2
20260506221507 30 163 8.0 24.1 0.00 0.00 0.00 67 1012.3
20260506221008 30 155 3.2 29.0 0.00 0.00 0.00 68 1012.2
20260506220508 30 160 14.5 27.4 0.00 0.00 0.00 67 1012.2
20260506220007 30 155 11.3 32.2 0.00 0.00 0.00 68 1012.0
20260506215508 30 144 8.0 20.9 0.00 0.00 0.00 68 1012.0
20260506214507 30 146 14.5 29.0 0.00 0.00 0.00 68 1011.9
20260506214008 30 155 11.3 24.1 0.00 0.00 0.00 68 1012.0
20260506213008 30 159 3.2 24.1 0.00 0.00 0.00 68 1012.2
20260506212507 30 149 16.1 29.0 0.00 0.00 0.00 67 1012.1
20260506212008 30 113 9.7 22.5 0.00 0.00 0.00 69 1012.1
20260506211508 30 149 4.8 16.1 0.00 0.00 0.00 67 1012.2
20260506211008 31 179 3.2 16.1 0.00 0.00 0.00 67 1012.3
20260506210508 31 96 0.0 9.7 0.00 0.00 0.00 67 1012.3
20260506205508 31 93 4.8 20.9 0.00 0.00 0.00 68 1012.3
20260506205007 31 111 4.8 16.1 0.00 0.00 0.00 66 1012.2
20260506204508 31 106 3.2 20.9 0.00 0.00 0.00 65 1012.4
20260506204007 31 110 3.2 16.1 0.00 0.00 0.00 66 1012.4
20260506203508 31 160 3.2 22.5 0.00 0.00 0.00 66 1012.4
20260506203007 31 150 11.3 19.3 0.00 0.00 0.00 66 1012.4
20260506202508 31 50 1.6 19.3 0.00 0.00 0.00 65 1012.5
20260506202007 31 98 1.6 14.5 0.00 0.00 0.00 65 1012.6
20260506201508 31 146 8.0 16.1 0.00 0.00 0.00 65 1012.5
20260506201007 31 149 8.0 19.3 0.00 0.00 0.00 63 1012.6
20260506200508 32 105 4.8 11.3 0.00 0.00 0.00 65 1012.8
20260506200008 32 154 6.4 14.5 0.00 0.00 0.00 63 1012.8
20260506195508 32 110 6.4 16.1 0.00 0.00 0.00 62 1012.9
20260506195007 32 162 3.2 20.9 0.00 0.00 0.00 61 1012.8
20260506194508 32 113 1.6 11.3 0.00 0.00 0.00 60 1012.8
20260506194007 32 89 0.0 9.7 0.00 0.00 0.00 60 1012.9
20260506193508 32 172 1.6 16.1 0.00 0.00 0.00 59 1013.1
20260506193008 32 222 9.7 19.3 0.00 0.00 0.00 56 1013.1
20260506192507 33 202 0.0 4.8 0.00 0.00 0.00 55 1013.1
20260506192007 33 139 4.8 16.1 0.00 0.00 0.00 53 1013.3
20260506191508 32 163 6.4 19.3 0.00 0.00 0.00 55 1013.4
20260506191008 32 181 9.7 19.3 0.00 0.00 0.00 55 1013.4
20260506190008 32 151 3.2 22.5 0.00 0.00 0.00 57 1013.5
20260506185507 32 158 0.0 19.3 0.00 0.00 0.00 56 1013.6
20260506185008 32 206 6.4 19.3 0.00 0.00 0.00 57 1013.7
20260506184508 32 169 1.6 4.8 0.00 0.00 0.00 56 1013.8
20260506184008 32 117 9.7 16.1 0.00 0.00 0.00 56 1013.9
20260506183508 32 151 6.4 19.3 0.00 0.00 0.00 57 1013.9
20260506183008 32 141 11.3 19.3 0.00 0.00 0.00 59 1014.0
20260506182507 32 141 9.7 22.5 0.00 0.00 0.00 57 1014.0
20260506182008 32 170 6.4 19.3 0.00 0.00 0.00 58 1014.0
20260506181507 31 163 8.0 20.9 0.00 0.00 0.00 59 1014.2
20260506181007 31 135 3.2 19.3 0.00 0.00 0.00 61 1014.2
20260506180508 31 210 3.2 14.5 0.00 0.00 0.00 61 1014.2
20260506180007 31 160 4.8 19.3 0.00 0.00 0.00 60 1014.3
20260506175508 31 164 4.8 20.9 0.00 0.00 0.00 63 1014.3
20260506175007 31 161 3.2 19.3 0.00 0.00 0.00 62 1014.4
20260506174508 31 218 1.6 12.9 0.00 0.00 0.00 62 1014.5
20260506174007 31 155 1.6 12.9 0.00 0.00 0.00 63 1014.6
20260506173507 30 151 8.0 14.5 0.00 0.00 0.00 63 1014.6
20260506173008 31 235 9.7 24.1 0.00 0.00 0.00 62 1014.8
20260506172508 31 156 8.0 19.3 0.00 0.00 0.00 62 1014.8
20260506172008 31 160 1.6 19.3 0.00 0.00 0.00 62 1014.8
20260506171507 31 143 4.8 16.1 0.00 0.00 0.00 62 1014.8
20260506171008 31 162 1.6 12.9 0.00 0.00 0.00 62 1014.9
20260506170508 30 171 4.8 12.9 0.00 0.00 0.00 63 1015.0
20260506170007 30 146 3.2 14.5 0.00 0.00 0.00 63 1015.1
20260506165508 30 172 11.3 19.3 0.00 0.00 0.00 64 1015.0
20260506165008 30 148 6.4 19.3 0.00 0.00 0.00 64 1015.2
20260506164508 30 180 8.0 19.3 0.00 0.00 0.00 64 1015.3
20260506164008 30 202 4.8 19.3 0.00 0.00 0.00 65 1015.5
20260506163508 29 170 11.3 20.9 0.00 0.00 0.00 66 1015.4
20260506163008 29 188 9.7 19.3 0.00 0.00 0.00 65 1015.5
20260506162508 29 231 11.3 20.9 0.00 0.00 0.00 65 1015.5
20260506162007 29 178 9.7 22.5 0.00 0.00 0.00 65 1015.4
20260506161008 28 152 4.8 16.1 0.00 0.00 0.00 69 1015.6
20260506160508 28 239 14.5 20.9 0.00 0.00 0.00 66 1015.6
20260506155508 28 202 4.8 16.1 0.00 0.00 0.00 67 1015.6
20260506155008 28 175 9.7 20.9 0.00 0.00 0.00 69 1015.6
20260506154507 28 192 8.0 25.7 0.00 0.00 0.00 68 1015.7
20260506154008 28 194 11.3 22.5 0.00 0.00 0.00 67 1015.7
20260506153507 28 168 9.7 20.9 0.00 0.00 0.00 67 1015.6
20260506153007 28 179 9.7 19.3 0.00 0.00 0.00 68 1015.5
20260506152508 28 167 9.7 22.5 0.00 0.00 0.00 68 1015.5
20260506151507 28 175 9.7 19.3 0.00 0.00 0.00 70 1015.5
20260506150508 27 150 11.3 19.3 0.00 0.00 0.00 69 1015.4
20260506150008 27 165 8.0 16.1 0.00 0.00 0.00 70 1015.4
20260506145007 27 175 11.3 32.2 0.00 0.00 0.00 70 1015.5
20260506144008 27 204 8.0 19.3 0.00 0.00 0.00 72 1015.3
20260506143507 26 187 16.1 32.2 0.00 0.00 0.00 71 1015.4
20260506143008 26 168 17.7 29.0 0.00 0.00 0.00 71 1015.3
20260506142508 26 171 14.5 27.4 0.00 0.00 0.00 71 1015.4
20260506142008 26 168 11.3 16.1 0.00 0.00 0.00 72 1015.3
20260506141507 26 165 14.5 27.4 0.00 0.00 0.00 72 1015.3
20260506140507 26 190 12.9 27.4 0.00 0.00 0.00 73 1015.4
20260506140008 26 167 14.5 27.4 0.00 0.00 0.00 73 1015.3
20260506135507 26 177 12.9 22.5 0.00 0.00 0.00 73 1015.4
20260506135007 25 168 12.9 24.1 0.00 0.00 0.00 74 1015.4
20260506134507 25 180 11.3 27.4 0.00 0.00 0.00 74 1015.5
20260506134008 25 183 8.0 19.3 0.00 0.00 0.00 74 1015.4
20260506133507 25 203 11.3 19.3 0.00 0.00 0.00 75 1015.4
20260506133008 25 209 9.7 20.9 0.00 0.00 0.00 75 1015.3
20260506132508 25 216 12.9 22.5 0.00 0.00 0.00 74 1015.3
20260506131008 24 188 8.0 16.1 0.00 0.00 0.00 76 1015.4
20260506130508 24 162 9.7 19.3 0.00 0.00 0.00 76 1015.3
20260506130007 23 191 3.2 12.9 0.00 0.00 0.00 77 1015.3
20260506124507 22 165 11.3 22.5 0.00 0.00 0.00 80 1015.1
20260506124007 22 176 8.0 14.5 0.00 0.00 0.00 82 1015.1
20260506123007 21 198 4.8 14.5 0.00 0.00 0.00 86 1015.0
20260506122508 21 165 4.8 8.0 0.00 0.00 0.00 87 1015.0
20260506122007 20 171 4.8 12.9 0.00 0.00 0.00 88 1014.9
20260506121507 20 203 3.2 8.0 0.00 0.00 0.00 89 1014.8
20260506121007 20 68 0.0 0.0 0.00 0.00 0.00 89 1014.8
20260506120508 19 68 0.0 0.0 0.00 0.00 0.00 89 1014.8
20260506120008 18 68 0.0 0.0 0.00 0.00 0.00 89 1014.8
20260506115508 18 68 0.0 0.0 0.00 0.00 0.00 89 1014.7
20260506115008 18 68 0.0 0.0 0.00 0.00 0.00 89 1014.7
20260506114008 18 68 0.0 0.0 0.00 0.00 0.00 89 1014.6
20260506113507 17 68 0.0 0.0 0.00 0.00 0.00 89 1014.7
20260506113008 17 68 0.0 0.0 0.00 0.00 0.00 89 1014.7
20260506112508 17 68 0.0 0.0 0.00 0.00 0.00 89 1014.7
20260506112007 17 68 0.0 0.0 0.00 0.00 0.00 89 1014.5
20260506111508 17 68 0.0 0.0 0.00 0.00 0.00 89 1014.3
20260506111007 17 68 0.0 0.0 0.00 0.00 0.00 89 1014.3
20260506110008 16 68 0.0 0.0 0.00 0.00 0.00 88 1014.1
20260506105507 16 68 0.0 0.0 0.00 0.00 0.00 88 1014.1
20260506104007 17 68 0.0 0.0 0.00 0.00 0.00 88 1014.2
20260506103007 17 68 0.0 0.0 0.00 0.00 0.00 88 1014.1
20260506102508 17 68 0.0 0.0 0.00 0.00 0.00 88 1014.1
20260506102007 17 68 0.0 0.0 0.00 0.00 0.00 88 1014.0
20260506101508 17 68 0.0 0.0 0.00 0.00 0.00 88 1014.1
20260506101008 17 68 0.0 0.0 0.00 0.00 0.00 88 1014.1
20260506100508 17 68 0.0 0.0 0.00 0.00 0.00 88 1014.2
20260506100008 17 68 0.0 0.0 0.00 0.00 0.00 87 1014.2
20260506095508 17 68 0.0 0.0 0.00 0.00 0.00 88 1014.1
20260506094507 17 68 0.0 0.0 0.00 0.00 0.00 88 1014.1
20260506094007 17 68 0.0 0.0 0.00 0.00 0.00 87 1014.1
20260506093507 17 68 0.0 0.0 0.00 0.00 0.00 87 1014.0
20260506093007 17 68 0.0 0.0 0.00 0.00 0.00 87 1014.0
20260506092508 17 68 0.0 0.0 0.00 0.00 0.00 87 1014.0
20260506092008 17 68 0.0 0.0 0.00 0.00 0.00 87 1013.9
20260506091507 17 68 0.0 0.0 0.00 0.00 0.00 87 1013.8
20260506090508 17 68 0.0 0.0 0.00 0.00 0.00 87 1013.8
20260506090008 17 68 0.0 0.0 0.00 0.00 0.00 87 1013.9
20260506085508 17 68 0.0 0.0 0.00 0.00 0.00 87 1013.9
20260506084508 17 68 0.0 0.0 0.00 0.00 0.00 87 1014.0
20260506083508 17 68 0.0 0.0 0.00 0.00 0.00 87 1013.8
20260506083008 17 68 0.0 0.0 0.00 0.00 0.00 87 1013.7
20260506082507 17 68 0.0 0.0 0.00 0.00 0.00 87 1013.8
20260506082009 17 68 0.0 0.0 0.00 0.00 0.00 87 1013.9
20260506081508 17 68 0.0 0.0 0.00 0.00 0.00 87 1013.8
20260506081008 17 68 0.0 0.0 0.00 0.00 0.00 87 1013.8
20260506080507 17 68 0.0 0.0 0.00 0.00 0.00 87 1013.9
20260506073508 17 68 0.0 0.0 0.00 0.00 0.00 87 1013.5
20260506073008 17 68 0.0 0.0 0.00 0.00 0.00 87 1013.3
20260506072508 17 68 0.0 0.0 0.00 0.00 0.00 87 1013.5
20260506072008 17 68 0.0 0.0 0.00 0.00 0.00 88 1013.6
20260506071508 17 68 0.0 0.0 0.00 0.00 0.00 87 1013.7
20260506071008 17 68 0.0 0.0 0.00 0.00 0.00 87 1013.8
20260506070508 17 68 0.0 0.0 0.00 0.00 0.00 87 1013.9